Date,TemperatureHighF,TemperatureAvgF,TemperatureLowF,DewpointHighF,DewpointAvgF,DewpointLowF,HumidityHigh,HumidityAvg,HumidityLow,PressureMaxIn,PressureMinIn,WindSpeedMaxMPH,WindSpeedAvgMPH,GustSpeedMaxMPH,PrecipitationSumIn
2013-1-1,47,43,35,41,32,18,81,66,44,29.85,29.68,9,1,11,0.00
2013-1-2,40,37,32,31,26,20,75,64,53,29.94,29.85,6,0,6,0.00
2013-1-3,50,36,25,32,17,10,77,50,24,30.09,29.94,11,1,13,0.04
2013-1-4,52,38,28,30,16,9,70,42,21,30.15,30.00,8,0,8,0.04
2013-1-5,49,42,35,34,23,18,70,49,33,30.00,29.88,8,1,8,0.00
2013-1-6,60,39,30,36,23,5,77,56,19,30.00,29.91,14,0,14,0.00
2013-1-7,35,35,31,13,12,5,40,38,33,30.00,29.97,0,0,0,0.00
2013-1-8,35,35,35,12,12,12,38,38,38,29.97,29.97,0,0,0,0.00
2013-1-9,56,49,35,50,38,12,81,68,38,29.97,29.74,14,2,14,0.35
2013-1-10,68,58,50,59,47,30,82,70,30,29.77,29.50,15,3,15,0.08
2013-1-11,72,55,40,45,33,28,78,48,22,29.65,29.50,10,1,10,0.04
2013-1-12,72,64,48,66,51,38,81,64,47,29.56,29.32,17,2,17,1.18
2013-1-13,49,41,30,38,21,8,69,47,28,29.91,29.44,13,3,13,0.12
2013-1-14,48,34,27,13,7,3,43,32,23,30.03,29.88,15,3,15,0.04
2013-1-15,35,32,29,20,11,2,59,42,31,29.94,29.77,15,4,15,0.04
2013-1-16,52,38,29,18,13,1,48,36,19,29.88,29.77,11,1,11,0.00
2013-1-17,61,42,26,21,12,2,51,30,19,30.12,29.83,17,2,17,0.00
2013-1-18,59,41,28,23,13,4,55,34,19,30.21,29.94,10,1,10,0.00
2013-1-19,63,44,29,22,15,9,50,32,18,29.97,29.80,11,2,11,0.00
2013-1-20,68,48,32,37,22,15,63,39,22,29.91,29.77,8,1,8,0.00
2013-1-21,58,45,34,29,16,6,56,34,19,29.97,29.77,12,2,12,0.00
2013-1-22,55,39,28,15,10,5,42,31,20,30.03,29.91,8,1,8,0.00
2013-1-23,70,49,34,33,22,11,55,36,23,29.97,29.80,10,1,10,0.00
2013-1-24,52,46,39,43,24,13,73,44,28,29.94,29.80,12,2,12,0.00
2013-1-25,55,44,39,42,25,13,75,48,34,29.85,29.68,12,1,12,0.00
2013-1-26,46,44,41,37,33,27,76,65,48,29.94,29.83,9,1,9,0.00
2013-1-27,68,54,44,55,43,37,82,68,34,29.85,29.65,11,1,11,0.00
2013-1-28,66,66,66,56,54,46,70,66,48,29.68,29.65,13,4,13,0.00
2013-1-29,72,65,53,56,53,36,77,66,34,29.68,29.12,20,4,20,0.75
2013-1-30,55,44,29,47,19,9,74,37,27,29.80,29.21,20,5,20,0.04
2013-1-31,63,45,28,25,16,9,65,35,18,29.94,29.74,13,3,13,0.04